This demonstration page uses our WeatherBlox Daily Observations layout. Learn more.

Left ArrowRight Arrow

Hourly Observations for March 3, 2015

Temp ( °F °C ) Dew Point ( °F °C ) Humidity (%) Winds ( mph kmh ) Pressure ( in mb ) Visibility ( mi km ) Precip ( " mm )
12:15 am 00:15 Clear 28 -2 19 -7 69 69 NNE 3 6 30.45 1031 10 16 N/A
12:35 am 00:35 Clear 27 -3 19 -7 74 74 NNE 3 6 30.45 1031 10 16 N/A
12:55 am 00:55 Clear 28 -2 19 -7 69 69 NNW 6 9 30.45 1031 10 16 N/A
1:15 am 01:15 Clear 30 -1 19 -7 64 64 N N/A 30.45 1031 10 16 N/A
1:35 am 01:35 Clear 28 -2 19 -7 69 69 NNE 3 6 30.45 1031 10 16 N/A
1:55 am 01:55 Clear 28 -2 19 -7 69 69 NNW 6 9 30.45 1031 10 16 N/A
2:15 am 02:15 Clear 28 -2 19 -7 69 69 NNE 6 9 30.45 1031 10 16 N/A
2:35 am 02:35 Clear 30 -1 19 -7 64 64 N N/A 30.45 1031 10 16 N/A
2:55 am 02:55 Clear 30 -1 19 -7 64 64 NNE 7 11 30.45 1031 10 16 N/A
3:15 am 03:15 Clear 28 -2 19 -7 69 69 NNE 3 6 30.42 1030 10 16 N/A
3:35 am 03:35 Clear 30 -1 19 -7 64 64 NNE 5 7 30.42 1030 10 16 N/A
3:55 am 03:55 Clear 28 -2 19 -7 69 69 ENE 5 7 30.42 1030 10 16 N/A
4:15 am 04:15 Clear 28 -2 19 -7 69 69 N N/A 30.42 1030 10 16 N/A
4:35 am 04:35 Clear 28 -2 19 -7 69 69 N N/A 30.42 1030 10 16 N/A
4:55 am 04:55 Partly Cloudy 28 -2 19 -7 69 69 N N/A 30.45 1031 10 16 N/A
5:15 am 05:15 Partly Cloudy 28 -2 19 -7 69 69 N N/A 30.45 1031 10 16 N/A
5:35 am 05:35 Partly Cloudy 28 -2 19 -7 69 69 N N/A 30.45 1031 10 16 N/A
5:55 am 05:55 Partly Cloudy 28 -2 19 -7 69 69 N N/A 30.45 1031 10 16 N/A
6:15 am 06:15 Mostly Cloudy 28 -2 19 -7 69 69 ENE 3 6 30.45 1031 10 16 N/A
6:35 am 06:35 Partly Cloudy 28 -2 19 -7 69 69 N N/A 30.45 1031 10 16 N/A
6:55 am 06:55 Sunny 28 -2 19 -7 69 69 N N/A 30.45 1031 10 16 N/A
7:15 am 07:15 Partly Cloudy 28 -2 19 -7 69 69 N N/A 30.45 1031 10 16 N/A
7:35 am 07:35 Partly Cloudy 28 -2 21 -6 74 74 N N/A 30.45 1031 10 16 N/A
7:55 am 07:55 Mostly Cloudy 28 -2 23 -5 80 80 N N/A 30.48 1032 10 16 N/A
8:15 am 08:15 Partly Cloudy 30 -1 21 -6 69 69 N N/A 30.45 1031 10 16 N/A
8:35 am 08:35 Sunny 30 -1 19 -7 64 64 SE 3 6 30.45 1031 10 16 N/A
8:55 am 08:55 Sunny 32 undefined 19 -7 60 60 SE 5 7 30.45 1031 10 16 N/A
9:15 am 09:15 Sunny 32 undefined 19 -7 60 60 ESE 5 7 30.45 1031 10 16 N/A
9:35 am 09:35 Sunny 32 undefined 19 -7 60 60 SE 5 7 30.45 1031 10 16 N/A
9:55 am 09:55 Mostly Cloudy 32 undefined 19 -7 60 60 SSE 7 11 30.42 1030 10 16 N/A
10:15 am 10:15 Cloudy 32 undefined 19 -7 60 60 SSE 9 15 30.42 1030 10 16 N/A
10:35 am 10:35 Cloudy 32 undefined 19 -7 60 60 S 10 17 30.42 1030 10 16 N/A
10:55 am 10:55 Cloudy 32 undefined 19 -7 60 60 S 9 15 30.39 1029 10 16 N/A
11:15 am 11:15 Cloudy with Light Snow 32 undefined 19 -7 60 60 S 13 20 30.39 1029 10 16 N/A
11:35 am 11:35 Cloudy 34 1 19 -7 56 56 S 10 17 30.36 1028 10 16 N/A
11:55 am 11:55 Cloudy with Light Wintry Mix 34 1 21 -6 60 60 S 14 22 30.36 1028 10 16 N/A
12:15 pm 12:15 Cloudy with Light Wintry Mix 34 1 23 -5 65 65 SSE 14 22 30.33 1027 10 16 N/A
12:35 pm 12:35 Cloudy 32 undefined 23 -5 69 69 SSE 14 22 30.33 1027 10 16 N/A
12:55 pm 12:55 Cloudy 32 undefined 21 -6 64 64 S 14 22 30.30 1026 10 16 N/A
1:15 pm 13:15 Cloudy 32 undefined 23 -5 69 69 SSE 9 15 30.30 1026 10 16 N/A
1:35 pm 13:35 Cloudy 32 undefined 21 -6 64 64 SSE 12 19 30.27 1025 10 16 N/A
2:15 pm 14:15 Cloudy 34 1 23 -5 65 65 SSE 9 15 30.24 1024 10 16 N/A
2:35 pm 14:35 Cloudy 34 1 23 -5 65 65 S 8 13 30.21 1023 10 16 N/A
2:55 pm 14:55 Cloudy 34 1 23 -5 65 65 S 12 19 30.21 1023 10 16 N/A
3:15 pm 15:15 Cloudy 34 1 21 -6 60 60 S 14 22 30.18 1022 10 16 N/A
3:35 pm 15:35 Cloudy 34 1 21 -6 60 60 SSE 13 20 30.18 1022 10 16 N/A
3:55 pm 15:55 Cloudy 34 1 21 -6 60 60 S 13 20 30.15 1021 10 16 N/A
4:15 pm 16:15 Cloudy with Light Wintry Mix 34 1 23 -5 65 65 S 13 20 30.15 1021 10 16 N/A
4:35 pm 16:35 Cloudy with Light Wintry Mix 34 1 23 -5 65 65 S 16 26 30.12 1020 10 16 N/A
4:55 pm 16:55 Cloudy with Light Wintry Mix 34 1 23 -5 65 65 S 15 24 30.12 1020 10 16 N/A
5:15 pm 17:15 Cloudy with Light Wintry Mix 32 undefined 27 -3 80 80 S 14 22 30.09 1019 7 11 N/A
5:35 pm 17:35 Cloudy 32 undefined 27 -3 80 80 S 13 20 30.09 1019 10 16 N/A
5:55 pm 17:55 Cloudy 34 1 27 -3 75 75 S 14 22 30.06 1018 10 16 N/A
6:15 pm 18:15 Cloudy 34 1 27 -3 75 75 S 16 26 30.06 1018 10 16 N/A
6:35 pm 18:35 Cloudy 34 1 27 -3 75 75 S 12 19 30.06 1018 10 16 N/A
6:55 pm 18:55 Cloudy 34 1 27 -3 75 75 S 14 22 30.03 1017 10 16 N/A
7:15 pm 19:15 Cloudy 34 1 28 -2 81 81 S 16 26 30.03 1017 10 16 N/A
7:35 pm 19:35 Cloudy 34 1 28 -2 81 81 S 15 24 30.00 1016 10 16 N/A
7:55 pm 19:55 Cloudy 36 2 28 -2 75 75 S 12 19 30.00 1016 10 16 N/A
8:15 pm 20:15 Partly Cloudy 36 2 30 -1 81 81 S 10 17 30.00 1016 10 16 N/A
8:35 pm 20:35 Clear 36 2 30 -1 81 81 S 10 17 29.97 1015 10 16 N/A
8:55 pm 20:55 Partly Cloudy 36 2 32 undefined 87 87 S 14 22 29.97 1015 10 16 N/A
9:35 pm 21:35 Partly Cloudy 36 2 32 undefined 87 87 SSW 14 22 29.97 1015 10 16 N/A
9:55 pm 21:55 Partly Cloudy 36 2 34 1 93 93 SSW 10 17 29.94 1014 10 16 N/A
10:15 pm 22:15 Partly Cloudy 36 2 34 1 93 93 S 6 9 29.94 1014 10 16 N/A
10:35 pm 22:35 Partly Cloudy 36 2 34 1 93 93 SSW 10 17 29.94 1014 10 16 N/A
10:55 pm 22:55 Cloudy 37 3 34 1 87 87 SSW 10 17 29.91 1013 10 16 N/A
11:15 pm 23:15 Cloudy 37 3 34 1 87 87 SW 5 7 29.91 1013 10 16 N/A
11:35 pm 23:35 Cloudy 37 3 34 1 87 87 SSW 10 17 29.88 1012 10 16 N/A
11:55 pm 23:55 Cloudy 37 3 34 1 87 87 S 10 17 29.88 1012 10 16 N/A

Powered by AerisWeather